Wind_Speed
45 46 47 48 48 48 48 48 47 47 47 47 47 46 46 45 44 43 43 42 42 41 41 41 40 40 39 39 39 39 40 40 40 39 39 38 37 38 38 38 37 37 37
45 45 46 47 48 49 49 49 49 49 49 48 48 48 48 47 46 46 45 44 44 43 43 42 42 41 41 40 40 40 40 40 40 40 40 40 39 39 39 39 39 39 39
43 44 45 46 47 48 48 49 49 50 50 50 50 50 50 48 48 47 47 46 46 45 44 43 43 43 43 42 41 41 41 41 41 41 41 41 40 39 39 39 39 40 40
43 44 45 45 46 47 48 49 49 50 50 51 51 50 50 50 48 47 47 47 47 46 45 44 45 44 44 43 43 42 42 42 42 41 41 41 41 41 40 39 39 39 40
41 43 43 44 45 46 48 49 50 50 51 51 51 51 51 51 49 49 48 48 48 48 47 47 46 45 44 44 44 43 43 43 43 43 43 43 42 42 42 40 39 40 40
40 41 42 42 43 44 46 48 49 51 52 52 52 52 51 51 51 51 50 49 49 49 47 47 47 47 46 45 45 44 44 44 44 44 43 43 43 43 43 42 41 41 41
40 41 42 42 43 44 45 47 48 50 50 51 52 52 51 51 51 51 51 51 50 48 47 47 47 47 46 45 45 45 45 45 44 44 44 44 44 43 43 43 43 43 42
40 40 41 42 42 43 44 45 46 48 49 50 51 51 51 51 51 51 50 51 50 48 47 47 47 47 47 46 47 46 46 46 45 45 44 44 44 44 43 43 44 43 43
39 40 41 42 42 42 43 44 45 46 48 49 50 51 51 51 51 51 50 50 49 49 48 47 47 47 47 47 47 47 46 46 46 46 45 44 43 43 43 44 44 45 44
37 38 40 41 41 42 43 43 44 45 47 48 49 51 51 51 52 52 51 50 49 49 50 50 48 47 47 47 47 46 46 46 46 46 46 46 45 45 45 45 46 46 46
36 36 37 38 39 41 42 43 43 44 45 47 48 49 50 51 52 52 50 49 49 48 48 48 48 48 47 47 47 47 46 46 46 46 47 46 46 46 46 46 46 47 47
33 34 34 35 36 37 39 41 42 43 44 45 46 47 48 49 50 50 50 49 49 48 47 47 48 49 48 47 47 47 46 46 46 46 46 45 46 46 46 46 46 46 47
31 31 31 32 33 34 35 37 38 39 40 41 42 43 44 45 47 48 48 48 47 48 48 47 48 48 48 47 47 46 46 45 45 46 45 45 45 45 46 45 45 46 46
30 30 31 31 31 32 32 32 34 35 36 37 38 39 41 43 45 47 47 47 47 47 47 46 46 47 47 48 47 46 45 45 45 45 45 45 45 45 45 45 45 46 46
28 28 29 29 29 29 29 30 31 32 33 35 37 37 39 40 42 44 45 46 46 46 46 47 46 45 46 47 47 46 46 45 45 45 45 45 45 45 45 45 45 46 46
28 27 27 29 28 27 27 29 29 30 32 33 35 36 37 38 39 41 43 44 45 45 45 46 46 46 46 46 46 46 46 46 46 46 46 46 46 45 44 44 45 45 45
25 25 26 27 28 28 28 29 29 30 31 32 32 33 35 36 37 39 41 42 43 44 45 45 46 45 44 45 45 45 46 46 46 46 46 46 46 45 45 44 45 45 45
24 25 25 26 27 27 28 28 29 31 32 33 33 33 35 35 36 37 39 40 42 43 43 44 44 44 44 44 44 45 45 46 45 45 45 45 45 44 45 46 45 45 45
23 24 25 26 27 27 27 27 28 29 30 31 32 33 34 35 36 36 37 39 40 41 42 43 42 43 43 44 44 45 45 45 45 45 45 45 44 43 44 44 44 42 43
23 23 24 26 27 27 27 27 27 28 28 29 30 31 32 34 35 36 37 38 39 40 41 42 42 43 43 44 44 44 44 44 44 45 45 45 44 43 42 43 43 43 42
21 22 24 25 26 26 26 27 27 27 27 28 29 30 32 34 35 36 36 37 37 39 40 41 41 41 42 43 43 44 44 44 44 44 44 44 42 42 42 42 42 41 40
21 22 23 24 24 24 24 25 26 27 27 28 29 30 32 33 34 34 35 36 36 37 38 39 40 40 41 41 42 43 43 43 43 43 43 43 42 41 40 40 40 40 40
22 22 22 22 22 23 23 23 24 25 26 28 29 30 30 31 31 32 33 34 34 35 36 37 38 39 39 39 40 40 40 39 39 39 39 40 39 38 37 38 38 38 38
22 22 21 21 22 23 23 23 23 24 25 26 27 27 27 28 29 30 31 31 31 32 33 33 35 35 35 36 36 37 36 36 36 36 36 37 36 35 35 35 36 36 35
21 21 21 21 22 23 23 23 23 23 23 23 23 24 25 26 27 28 28 29 29 29 29 30 31 31 32 32 32 32 32 33 33 33 34 34 35 35 35 34 34 34 34
20 20 20 21 21 22 22 22 22 21 22 22 22 23 23 24 25 25 26 26 26 26 26 26 27 27 28 29 29 29 29 30 30 30 30 32 33 34 34 33 33 33 33
Wind_Direction
250 250 250 250 250 251 252 251 251 251 251 251 251 251 251 252 252 254 254 253 254 254 255 256 257 257 257 258 258 258 259 259 260 261 262 263 264 263 263 264 265 266 265
250 251 252 251 251 252 251 251 250 250 251 251 250 250 251 250 250 252 253 252 252 253 255 256 256 257 257 258 258 258 259 259 260 261 262 263 264 264 264 263 264 265 265
251 252 251 251 252 252 251 250 249 249 249 250 250 250 250 250 250 251 252 252 252 252 254 255 255 256 257 257 258 258 258 260 261 261 262 262 262 262 263 264 264 264 265
253 253 253 252 252 252 252 251 250 249 249 249 249 249 249 249 250 251 251 251 250 251 252 253 255 256 256 256 256 257 258 260 261 262 263 262 261 261 261 263 264 265 266
255 254 254 253 253 252 251 251 250 250 249 248 248 249 249 248 248 249 250 250 249 250 252 252 254 254 255 255 255 256 259 260 261 263 264 263 262 262 263 262 263 265 266
257 255 255 255 254 253 252 252 251 251 250 249 248 248 248 248 248 249 250 249 249 251 252 253 253 254 254 255 255 257 258 260 261 262 264 264 264 263 263 262 263 264 265
257 255 255 255 255 254 254 253 252 251 250 249 248 248 248 248 248 248 249 249 250 251 252 253 253 254 254 254 255 256 258 260 261 262 263 264 264 264 264 263 262 263 264
258 256 256 256 256 255 253 253 253 252 250 249 248 247 247 248 247 247 248 248 249 250 252 253 253 254 254 255 255 256 258 258 259 261 262 263 263 264 264 263 263 263 264
259 258 258 257 257 255 254 254 253 253 252 250 248 247 246 246 246 246 247 247 247 249 250 251 253 255 255 254 255 256 257 257 258 259 260 262 263 263 264 265 264 264 264
262 260 258 257 256 256 256 255 255 254 253 251 248 246 245 245 245 246 247 246 247 249 250 251 252 253 254 255 255 256 256 256 258 259 260 261 263 264 265 266 266 266 266
263 262 259 259 260 259 258 256 256 255 253 251 248 245 244 243 245 246 247 247 248 249 250 250 251 253 254 255 255 256 256 257 258 259 260 261 262 264 265 266 267 267 267
264 262 260 260 260 259 258 257 257 255 254 251 248 246 244 243 244 245 245 246 248 250 252 252 252 253 254 255 255 255 255 257 257 258 259 260 262 263 265 266 267 268 268
264 263 262 261 261 262 260 258 256 255 254 252 248 246 245 245 245 244 245 247 249 251 252 253 252 252 253 254 254 254 255 257 257 257 259 261 262 263 265 266 267 268 268
266 266 267 266 266 266 264 260 257 256 254 250 248 247 248 247 245 245 246 248 249 251 252 252 253 252 252 252 254 254 254 256 257 257 259 260 262 263 265 266 267 268 268
266 266 266 267 268 267 265 262 258 256 253 251 250 249 249 248 247 247 247 249 250 251 252 252 252 253 252 253 254 254 254 256 257 257 259 260 262 264 265 267 267 268 269
267 265 265 267 266 265 264 262 259 257 256 255 252 250 250 250 250 249 249 250 250 251 252 253 253 254 255 255 254 255 254 255 255 256 258 259 261 263 265 266 267 268 270
270 267 267 270 268 266 266 264 260 259 260 258 256 254 252 251 252 252 252 250 250 251 252 253 254 255 255 255 255 256 255 255 256 257 258 258 260 263 265 266 268 269 269
270 269 269 270 270 268 266 265 264 263 262 259 258 257 254 252 252 253 252 252 251 251 253 253 255 255 255 254 254 254 255 255 256 257 257 258 261 264 265 265 267 268 269
270 270 271 272 271 270 268 265 264 266 264 261 259 257 254 252 253 253 254 254 253 253 254 253 253 254 254 254 254 255 256 256 256 256 256 258 260 263 265 265 266 267 269
274 275 275 275 274 271 269 266 266 266 264 260 259 256 255 254 255 256 257 258 257 256 255 254 254 254 255 255 256 257 257 257 257 257 256 257 258 262 264 265 266 266 268
276 278 278 277 276 274 270 268 267 267 265 261 260 258 257 257 258 259 260 261 260 259 257 255 254 255 256 256 257 256 256 257 257 257 256 257 258 261 262 263 264 266 267
278 279 280 280 277 276 274 270 268 267 265 264 263 261 260 260 260 260 261 261 260 259 258 257 256 257 257 256 256 256 257 257 257 257 256 257 258 260 261 261 262 264 265
279 280 280 279 276 275 274 272 270 269 267 265 264 263 263 262 262 261 261 261 260 260 260 259 258 258 257 256 255 254 255 255 255 256 257 258 258 258 259 260 262 263 264
278 278 277 277 276 276 275 274 273 271 270 268 266 264 264 263 263 263 262 262 262 261 260 260 260 258 256 254 253 253 252 252 253 254 256 256 255 256 258 259 261 263 265
278 277 277 277 278 278 278 276 274 274 271 269 269 268 266 265 264 264 264 263 263 263 262 261 259 255 252 251 251 251 251 252 253 254 254 253 253 254 257 260 261 262 264
280 279 278 278 279 280 280 278 277 277 275 273 272 271 269 269 268 267 266 266 266 265 265 263 258 253 250 249 249 249 249 250 251 251 252 253 254 255 257 260 261 262 264
Height
5700 5702 5705 5707 5709 5712 5714 5717 5720 5722 5724 5726 5729 5732 5734 5736 5739 5741 5743 5745 5747 5749 5751 5753 5754 5756 5757 5759 5760 5761 5762 5763 5765 5766 5767 5768 5769 5770 5770 5771 5772 5772 5772
5688 5690 5692 5694 5697 5699 5701 5703 5706 5709 5712 5714 5717 5720 5722 5725 5727 5730 5732 5735 5737 5739 5741 5743 5745 5746 5748 5749 5750 5752 5753 5754 5755 5756 5757 5758 5760 5760 5761 5762 5763 5763 5764
5676 5678 5680 5682 5684 5686 5688 5690 5693 5695 5699 5701 5704 5707 5709 5712 5715 5718 5721 5724 5726 5728 5730 5733 5735 5736 5738 5739 5740 5742 5743 5744 5745 5746 5747 5749 5750 5751 5752 5752 5753 5754 5754
5664 5665 5667 5669 5670 5672 5674 5677 5679 5682 5685 5688 5691 5694 5697 5701 5704 5707 5709 5712 5714 5717 5719 5721 5723 5725 5727 5728 5730 5731 5733 5734 5735 5736 5737 5739 5740 5741 5742 5744 5744 5744 5744
5652 5653 5655 5656 5658 5659 5661 5664 5666 5668 5671 5675 5678 5681 5685 5688 5692 5694 5697 5700 5703 5705 5707 5710 5712 5714 5716 5718 5719 5721 5722 5724 5725 5726 5727 5728 5729 5730 5732 5734 5735 5735 5735
5641 5642 5643 5644 5646 5647 5648 5650 5652 5655 5658 5661 5664 5668 5671 5675 5679 5682 5685 5687 5690 5693 5695 5698 5700 5702 5704 5706 5708 5710 5712 5713 5715 5716 5717 5718 5719 5720 5721 5722 5723 5724 5725
5630 5631 5632 5633 5634 5635 5636 5637 5639 5641 5644 5647 5650 5654 5658 5662 5665 5669 5672 5675 5678 5680 5683 5685 5688 5690 5692 5695 5697 5699 5701 5702 5704 5705 5706 5707 5708 5709 5709 5710 5712 5713 5714
5619 5619 5620 5621 5622 5623 5623 5624 5625 5628 5630 5633 5637 5641 5645 5648 5652 5655 5659 5662 5666 5669 5671 5673 5676 5678 5680 5683 5685 5687 5689 5691 5692 5693 5695 5696 5696 5697 5698 5699 5700 5701 5703
5607 5607 5608 5609 5609 5610 5611 5612 5613 5615 5617 5620 5623 5627 5631 5635 5639 5643 5646 5650 5653 5656 5658 5661 5663 5666 5668 5670 5672 5675 5677 5679 5680 5682 5683 5684 5685 5686 5686 5687 5688 5689 5691
5596 5596 5596 5597 5597 5598 5599 5600 5601 5602 5604 5606 5609 5613 5618 5622 5626 5630 5634 5637 5640 5643 5646 5649 5651 5653 5655 5657 5659 5662 5664 5666 5668 5670 5671 5672 5674 5674 5675 5675 5676 5676 5678
5585 5585 5585 5586 5586 5586 5587 5588 5588 5589 5591 5593 5596 5599 5604 5608 5613 5617 5621 5625 5628 5631 5633 5636 5639 5641 5643 5645 5647 5650 5652 5653 5655 5657 5659 5660 5662 5663 5663 5664 5664 5664 5665
5575 5575 5575 5575 5575 5575 5575 5576 5576 5577 5578 5581 5583 5587 5591 5595 5600 5604 5608 5612 5615 5618 5621 5623 5626 5629 5631 5633 5635 5637 5639 5641 5643 5645 5647 5648 5649 5650 5651 5652 5652 5652 5653
5565 5565 5565 5564 5564 5564 5564 5564 5564 5565 5566 5568 5571 5575 5579 5584 5588 5592 5596 5599 5602 5605 5608 5611 5614 5616 5618 5621 5623 5625 5627 5629 5631 5633 5635 5636 5637 5638 5639 5639 5640 5640 5640
5557 5557 5556 5556 5555 5555 5555 5554 5554 5555 5556 5558 5561 5565 5568 5572 5576 5580 5583 5586 5590 5593 5596 5599 5601 5603 5605 5608 5610 5612 5615 5617 5619 5621 5622 5624 5625 5626 5627 5627 5628 5628 5628
5549 5549 5549 5548 5548 5547 5547 5546 5546 5547 5548 5549 5552 5554 5557 5561 5564 5568 5571 5575 5578 5581 5583 5586 5589 5591 5594 5596 5598 5600 5602 5605 5607 5609 5610 5612 5613 5614 5614 5615 5616 5615 5615
5541 5541 5541 5541 5540 5540 5539 5539 5538 5539 5540 5541 5543 5545 5548 5551 5554 5557 5560 5563 5566 5569 5571 5574 5577 5579 5581 5583 5585 5587 5590 5592 5595 5597 5598 5600 5601 5602 5602 5603 5603 5603 5603
5534 5534 5534 5533 5533 5532 5532 5532 5531 5531 5532 5533 5535 5536 5539 5542 5544 5547 5549 5552 5554 5557 5560 5562 5564 5567 5569 5570 5573 5575 5577 5580 5582 5584 5586 5587 5588 5589 5590 5590 5590 5590 5590
5527 5527 5526 5526 5526 5525 5524 5524 5524 5523 5524 5525 5526 5528 5530 5532 5534 5537 5539 5541 5543 5546 5548 5550 5552 5554 5556 5558 5560 5562 5564 5567 5570 5572 5573 5574 5576 5577 5577 5578 5578 5578 5578
5521 5520 5520 5519 5518 5518 5517 5516 5516 5516 5516 5517 5518 5519 5521 5523 5525 5527 5529 5531 5532 5534 5536 5538 5540 5542 5544 5546 5548 5550 5552 5554 5557 5559 5560 5562 5563 5564 5564 5566 5566 5567 5567
5514 5514 5513 5512 5511 5510 5510 5509 5508 5508 5509 5509 5510 5511 5512 5514 5516 5518 5519 5520 5522 5523 5524 5526 5528 5530 5532 5534 5536 5537 5539 5542 5544 5546 5548 5549 5550 5552 5552 5553 5554 5555 5556
5508 5507 5507 5506 5505 5504 5503 5502 5501 5501 5501 5501 5502 5503 5504 5505 5507 5508 5509 5510 5511 5512 5513 5515 5517 5519 5521 5522 5523 5525 5526 5529 5531 5533 5536 5537 5538 5539 5541 5542 5543 5544 5544
5502 5501 5500 5499 5498 5497 5496 5495 5495 5494 5494 5494 5494 5494 5495 5496 5497 5498 5499 5500 5500 5501 5502 5504 5506 5507 5508 5510 5511 5512 5514 5516 5519 5521 5523 5525 5527 5528 5529 5530 5532 5532 5533
5496 5495 5494 5493 5491 5490 5489 5489 5488 5487 5486 5486 5486 5486 5486 5486 5487 5488 5489 5489 5490 5491 5492 5493 5494 5496 5496 5498 5499 5501 5503 5505 5507 5509 5512 5514 5515 5517 5518 5520 5521 5522 5522
5490 5489 5488 5487 5486 5484 5483 5482 5481 5480 5479 5478 5478 5478 5478 5478 5478 5478 5479 5479 5480 5480 5481 5482 5483 5485 5486 5487 5489 5490 5492 5494 5496 5498 5500 5503 5504 5506 5507 5509 5511 5512 5513
5484 5483 5482 5481 5480 5478 5477 5475 5474 5473 5472 5471 5471 5470 5470 5470 5470 5470 5470 5470 5471 5471 5472 5472 5473 5474 5476 5478 5479 5481 5483 5485 5487 5489 5490 5492 5494 5496 5498 5500 5501 5502 5503
5478 5477 5476 5475 5474 5472 5471 5469 5468 5467 5466 5465 5464 5463 5463 5463 5463 5462 5462 5462 5462 5462 5462 5463 5464 5465 5467 5469 5471 5472 5475 5476 5478 5480 5481 5483 5485 5488 5489 5491 5492 5493 5494